Location: Buch
(50.1863°N, 11.0141°E)
Time: 10:36:04
(UTC+00:00)

PAYLOAD B - Pass Details

Date: 18 January 2020
Orbit: 850 x 871 km, 99.1° (Epoch: 18 February)

Event Time Altitude Azimuth Distance (km) Brightness Sun altitude
Rises 04:52:56 0° 16° (NNE) 3,468 7.5 -20.9°
Reaches altitude 10° 04:55:20 10° 17° (NNE) 2,528 6.8 -20.6°
Maximum altitude 05:00:58 81° 105° (ESE) 889 4.3 -19.7°
Drops below altitude 10° 05:06:35 10° 193° (SSW) 2,514 6.6 -18.8°
Sets 05:08:57 0° 195° (SSW) 3,447 7.3 -18.4°
